{"data":{"norad_id":53058,"intl_designator":"2022-077R","name":"STARLINK-4317","alt_names":[],"object_type":"PAYLOAD","status":"ACTIVE","operator":null,"country":"US","launch_date":"2022-07-11","launch_site_code":"AFWTR","launch_vehicle":null,"mission":null,"orbit_class":"UNKNOWN","rcs_meters":null,"size_class":null,"mass_kg":null,"dimensions":null,"purposes":["comms"],"wikipedia_slug":null,"has_3d_model":false,"image_url":null,"decayed_at":null,"tle_current":{"epoch":"2026-05-25T01:39:13.144032Z","epoch_age_seconds":78002,"freshness":"FRESH","line1":"1 53058U 22077R   26145.06890213 -.00001877  00000+0 -12606-3 0  9998","line2":"2 53058  97.4470 325.0742 0001691  87.6138 272.5283 15.05659534212419","mean_motion":15.05659534,"eccentricity":0.0001691,"inclination_deg":97.447,"raan_deg":325.0742,"arg_perigee_deg":87.6138,"mean_anomaly_deg":272.5283,"bstar":-0.00012606,"rev_number":21241,"period_min":95.63915131427,"perigee_km":548.31044923603,"apogee_km":550.65336995125,"semimajor_km":6927.6189095936,"source":"CELESTRAK","updated_at":"2026-05-25T13:38:17.288883Z"}}}